GSAT0217 (GALILEO 21)

Last updated on Wed Sep 17 2025 00:02:35 GMT+0000 (Coordinated Universal Time)

1 43057U 17079C 25259.00686936 .00000018 00000+0 00000+0 0 9991 2 43057 55.1621 229.0477 0003819 293.9570 65.9742 1.70473943 48315
UTC large
Height (km)
Speed (km/s)
/
Latitude / Longitude
Inclination (degrees)
Orbital Period (minutes)
Azimuth
Elevation
Range (km)
Doppler Factor

Next 0 passes for location: London (51.5072 / 0.1276)

Sorry there are no passes over London.